Location: Bord�res
(43.2000°N, 0.2167°W)
Time: 14:12:58
(UTC+00:00)

ARGOS - Pass Details

Date: 03 March 2021
Orbit: 819 x 835 km, 98.4° (Epoch: 14 April)

Event Time Altitude Azimuth Distance (km) Brightness Sun altitude
Rises 19:28:57 0° 181° (S) 3,363 6.3 -18.3°
Reaches altitude 10° 19:31:23 10° 187° (S) 2,436 5.6 -18.7°
Maximum altitude 19:36:35 48° 261° (W) 1,085 4.2 -19.7°
Drops below altitude 10° 19:41:50 10° 335° (NNW) 2,456 6.1 -20.6°
Sets 19:44:18 0° 341° (NNW) 3,395 6.8 -21.1°
